Datum;Richtung;Anzahl Messungen;Anzahl Fahrzeuge;Durchschnittsgeschwindigkeit;Höchstgeschwindigkeit
01.09.2021 00:00;1;4;4;26.50;29.00
01.09.2021 00:30;1;2;2;33.50;43.00
01.09.2021 01:00;1;5;5;28.40;43.00
01.09.2021 02:00;1;1;1;39.00;39.00
01.09.2021 02:30;1;1;1;24.00;24.00
01.09.2021 03:00;1;1;1;37.00;37.00
01.09.2021 03:30;1;2;2;28.50;31.00
01.09.2021 04:00;1;1;1;22.00;22.00
01.09.2021 04:30;1;1;1;39.00;39.00
01.09.2021 05:00;1;6;6;24.83;29.00
01.09.2021 05:30;1;15;15;23.27;29.00
01.09.2021 06:00;1;25;25;26.20;36.00
01.09.2021 06:30;1;41;41;23.66;38.00
01.09.2021 07:00;1;56;56;25. Sep;43.00
01.09.2021 07:30;1;50;50;24.30;33.00
01.09.2021 08:00;1;47;47;24.70;36.00
01.09.2021 08:30;1;46;46;25.46;40.00
01.09.2021 09:00;1;40;40;23.88;39.00
01.09.2021 09:30;1;44;44;23.95;38.00
01.09.2021 10:00;1;54;54;25.91;41.00
01.09.2021 10:30;1;63;63;24. Mai;41.00
01.09.2021 11:00;1;54;54;24.37;40.00
01.09.2021 11:30;1;61;61;24.97;40.00
01.09.2021 12:00;1;49;49;24.90;36.00
01.09.2021 12:30;1;57;57;23.63;35.00
01.09.2021 13:00;1;48;48;25. Apr;38.00
01.09.2021 13:30;1;55;55;25.35;43.00
01.09.2021 14:00;1;56;56;23. Mai;37.00
01.09.2021 14:30;1;61;61;24.25;37.00
01.09.2021 15:00;1;50;50;24.38;43.00
01.09.2021 15:30;1;57;57;24.79;39.00
01.09.2021 16:00;1;50;50;23.80;38.00
01.09.2021 16:30;1;67;67;25.25;66.00
01.09.2021 17:00;1;64;64;24.16;39.00
01.09.2021 17:30;1;51;51;24.67;36.00
01.09.2021 18:00;1;56;56;24.23;39.00
01.09.2021 18:30;1;52;52;25. Okt;39.00
01.09.2021 19:00;1;54;54;24.54;42.00
01.09.2021 19:30;1;30;30;24.63;34.00
01.09.2021 20:00;1;40;40;24.68;34.00
01.09.2021 20:30;1;34;34;27. Sep;44.00
01.09.2021 21:00;1;27;27;25.41;39.00
01.09.2021 21:30;1;19;19;27.95;37.00
01.09.2021 22:00;1;15;15;28.33;49.00
01.09.2021 22:30;1;13;13;27. Aug;34.00
01.09.2021 23:00;1;11;11;20.73;26.00
01.09.2021 23:30;1;5;5;29.00;42.00
02.09.2021 00:00;1;6;6;24.17;31.00
02.09.2021 00:30;1;2;2;23.50;27.00
02.09.2021 01:00;1;1;1;36.00;36.00
02.09.2021 02:30;1;1;1;37.00;37.00
02.09.2021 03:30;1;4;4;30.00;34.00
02.09.2021 04:00;1;3;3;33.67;44.00
02.09.2021 04:30;1;2;2;21.00;23.00
02.09.2021 05:00;1;8;8;23.88;32.00
02.09.2021 05:30;1;11;11;26.45;40.00
02.09.2021 06:00;1;21;21;26.14;45.00
02.09.2021 06:30;1;46;46;24.59;32.00
02.09.2021 07:00;1;51;51;24.25;41.00
02.09.2021 07:30;1;52;52;23.35;33.00
02.09.2021 08:00;1;45;45;25.42;43.00
02.09.2021 08:30;1;41;41;25.32;39.00
02.09.2021 09:00;1;51;51;25.41;36.00
02.09.2021 09:30;1;59;59;24.66;52.00
02.09.2021 10:00;1;58;58;24.97;38.00
02.09.2021 10:30;1;66;66;23.95;37.00
02.09.2021 11:00;1;62;62;24.58;37.00
02.09.2021 11:30;1;58;58;24.60;35.00
02.09.2021 12:00;1;62;62;24.18;40.00
02.09.2021 12:30;1;54;54;24.74;41.00
02.09.2021 13:00;1;57;57;23.95;35.00
02.09.2021 13:30;1;65;65;25. Jun;57.00
02.09.2021 14:00;1;49;49;23.94;36.00
02.09.2021 14:30;1;42;42;24. Okt;35.00
02.09.2021 15:00;1;47;47;23.81;35.00
02.09.2021 15:30;1;56;56;23.95;37.00
02.09.2021 16:00;1;59;59;23.24;30.00
02.09.2021 16:30;1;67;67;23.43;32.00
02.09.2021 17:00;1;72;72;24.62;33.00
02.09.2021 17:30;1;54;54;25.81;51.00
02.09.2021 18:00;1;49;49;24.71;34.00
02.09.2021 18:30;1;54;54;25.20;43.00
02.09.2021 19:00;1;51;51;25.00;36.00
02.09.2021 19:30;1;30;30;25.33;42.00
02.09.2021 20:00;1;40;40;27.32;49.00
02.09.2021 20:30;1;40;40;26.55;46.00
02.09.2021 21:00;1;28;28;24.82;37.00
02.09.2021 21:30;1;23;23;24.00;35.00
02.09.2021 22:00;1;13;13;28.62;42.00
02.09.2021 22:30;1;19;19;27.84;37.00
02.09.2021 23:00;1;17;17;26.71;37.00
02.09.2021 23:30;1;8;8;28.00;40.00
03.09.2021 00:00;1;4;4;26.50;39.00
03.09.2021 00:30;1;2;2;36.00;48.00
03.09.2021 01:00;1;3;3;38.00;39.00
03.09.2021 01:30;1;4;4;26.25;36.00
03.09.2021 02:30;1;1;1;24.00;24.00
03.09.2021 03:00;1;2;2;28.50;32.00
03.09.2021 03:30;1;4;4;31.50;38.00
03.09.2021 04:00;1;3;3;23.33;24.00
03.09.2021 04:30;1;1;1;31.00;31.00
03.09.2021 05:00;1;7;7;25.71;31.00
03.09.2021 05:30;1;18;18;24.61;32.00
03.09.2021 06:00;1;19;19;26.89;39.00
03.09.2021 06:30;1;42;42;24.36;33.00
03.09.2021 07:00;1;50;50;25. Jun;38.00
03.09.2021 07:30;1;52;52;24.00;37.00
03.09.2021 08:00;1;44;44;25.61;45.00
03.09.2021 08:30;1;41;41;24.68;34.00
03.09.2021 09:00;1;53;53;26.45;40.00
03.09.2021 09:30;1;64;64;25.66;46.00
03.09.2021 10:00;1;58;58;24.67;39.00
03.09.2021 10:30;1;68;68;25.54;42.00
03.09.2021 11:00;1;69;69;24.13;43.00
03.09.2021 11:30;1;63;63;23.95;38.00
03.09.2021 12:00;1;55;55;24. Apr;35.00
03.09.2021 12:30;1;59;59;24.61;43.00
03.09.2021 13:00;1;64;64;23.86;37.00
03.09.2021 13:30;1;63;63;25. Jun;40.00
03.09.2021 14:00;1;49;49;23.80;34.00
03.09.2021 14:30;1;64;64;24. Mai;33.00
03.09.2021 15:00;1;61;61;24.90;39.00
03.09.2021 15:30;1;55;55;25.71;36.00
03.09.2021 16:00;1;78;78;24.46;41.00
03.09.2021 16:30;1;58;58;24.26;37.00
03.09.2021 17:00;1;70;70;24.59;35.00
03.09.2021 17:30;1;43;43;24.91;37.00
03.09.2021 18:00;1;61;61;25.70;41.00
03.09.2021 18:30;1;45;45;24.60;37.00
03.09.2021 19:00;1;48;48;24.19;35.00
03.09.2021 19:30;1;34;34;24.56;34.00
03.09.2021 20:00;1;38;38;26.84;48.00
03.09.2021 20:30;1;30;30;27.00;41.00
03.09.2021 21:00;1;28;28;26.71;38.00
03.09.2021 21:30;1;27;27;28.63;41.00
03.09.2021 22:00;1;31;31;26.42;43.00
03.09.2021 22:30;1;23;23;27.52;35.00
03.09.2021 23:00;1;10;10;26.90;38.00
03.09.2021 23:30;1;11;11;27.18;43.00
04.09.2021 00:00;1;6;6;25.17;35.00
04.09.2021 00:30;1;4;4;22.50;27.00
04.09.2021 01:00;1;4;4;35.75;43.00
04.09.2021 01:30;1;1;1;37.00;37.00
04.09.2021 02:00;1;4;4;32.00;40.00
04.09.2021 02:30;1;3;3;29.67;31.00
04.09.2021 03:00;1;1;1;31.00;31.00
04.09.2021 03:30;1;3;3;24.67;28.00
04.09.2021 04:00;1;3;3;35.33;41.00
04.09.2021 04:30;1;3;3;25.00;27.00
04.09.2021 05:00;1;4;4;27.75;41.00
04.09.2021 05:30;1;8;8;27.62;39.00
04.09.2021 06:00;1;8;8;24.25;32.00
04.09.2021 06:30;1;15;15;24.87;32.00
04.09.2021 07:00;1;20;20;25. Okt;39.00
04.09.2021 07:30;1;24;24;26. Aug;35.00
04.09.2021 08:00;1;27;27;27.70;41.00
04.09.2021 08:30;1;48;48;25.42;32.00
04.09.2021 09:00;1;48;48;24.52;43.00
04.09.2021 09:30;1;42;42;25.55;43.00
04.09.2021 10:00;1;60;60;25.72;45.00
04.09.2021 10:30;1;66;66;25.23;39.00
04.09.2021 11:00;1;65;65;24.71;36.00
04.09.2021 11:30;1;72;72;24. Dez;41.00
04.09.2021 12:00;1;64;64;24.94;33.00
04.09.2021 12:30;1;61;61;25.59;36.00
04.09.2021 13:00;1;64;64;26.27;46.00
04.09.2021 13:30;1;58;58;24.24;31.00
04.09.2021 14:00;1;65;65;24.97;42.00
04.09.2021 14:30;1;48;48;25.21;38.00
04.09.2021 15:00;1;55;55;24.58;38.00
04.09.2021 15:30;1;50;50;24.86;35.00
04.09.2021 16:00;1;42;42;25.55;37.00
04.09.2021 16:30;1;44;44;24.75;39.00
04.09.2021 17:00;1;46;46;25.89;39.00
04.09.2021 17:30;1;61;61;25.64;35.00
04.09.2021 18:00;1;51;51;27.29;39.00
04.09.2021 18:30;1;43;43;25.86;41.00
04.09.2021 19:00;1;53;53;25.58;40.00
04.09.2021 19:30;1;30;30;25.17;37.00
04.09.2021 20:00;1;38;38;25.26;44.00
04.09.2021 20:30;1;36;36;26. Nov;40.00
04.09.2021 21:00;1;29;29;31.24;54.00
04.09.2021 21:30;1;17;17;26.71;37.00
04.09.2021 22:00;1;18;18;23. Nov;30.00
04.09.2021 22:30;1;19;19;27.37;41.00
04.09.2021 23:00;1;14;14;24.79;35.00
04.09.2021 23:30;1;8;8;25.88;37.00
05.09.2021 00:00;1;15;15;26.73;51.00
05.09.2021 00:30;1;7;7;29.00;39.00
05.09.2021 01:00;1;8;8;25.00;39.00
05.09.2021 01:30;1;5;5;32.80;49.00
05.09.2021 02:00;1;2;2;35.00;38.00
05.09.2021 02:30;1;2;2;33.00;38.00
05.09.2021 03:00;1;1;1;30.00;30.00
05.09.2021 03:30;1;4;4;34.25;44.00
05.09.2021 04:00;1;3;3;41.00;51.00
05.09.2021 04:30;1;3;3;25.00;38.00
05.09.2021 05:00;1;4;4;27.25;33.00
05.09.2021 05:30;1;3;3;28.33;29.00
05.09.2021 06:00;1;3;3;25.00;31.00
05.09.2021 06:30;1;5;5;23.80;27.00
05.09.2021 07:00;1;9;9;25.44;33.00
05.09.2021 07:30;1;13;13;25.85;40.00
05.09.2021 08:00;1;10;10;29.50;38.00
05.09.2021 08:30;1;12;12;29.50;38.00
05.09.2021 09:00;1;22;22;26.64;34.00
05.09.2021 09:30;1;19;19;27.95;39.00
05.09.2021 10:00;1;37;37;26. Aug;36.00
05.09.2021 10:30;1;32;32;26.97;41.00
05.09.2021 11:00;1;34;34;26.41;45.00
05.09.2021 11:30;1;37;37;25.41;30.00
05.09.2021 12:00;1;36;36;26.14;40.00
05.09.2021 12:30;1;36;36;25.72;45.00
05.09.2021 13:00;1;40;40;26.80;38.00
05.09.2021 13:30;1;38;38;25.68;36.00
05.09.2021 14:00;1;34;34;25.26;34.00
05.09.2021 14:30;1;36;36;25. Nov;40.00
05.09.2021 15:00;1;35;35;26.29;39.00
05.09.2021 15:30;1;36;36;24.64;35.00
05.09.2021 16:00;1;43;43;25.93;43.00
05.09.2021 16:30;1;30;30;25.57;40.00
05.09.2021 17:00;1;37;37;26.32;40.00
05.09.2021 17:30;1;34;34;25.00;36.00
05.09.2021 18:00;1;35;35;24.97;38.00
05.09.2021 18:30;1;43;43;27. Sep;42.00
05.09.2021 19:00;1;42;42;25.88;64.00
05.09.2021 19:30;1;31;31;25.65;40.00
05.09.2021 20:00;1;31;31;25.68;41.00
05.09.2021 20:30;1;29;29;25.86;42.00
05.09.2021 21:00;1;19;19;28.53;43.00
05.09.2021 21:30;1;18;18;28.72;39.00
05.09.2021 22:00;1;15;15;29.53;37.00
05.09.2021 22:30;1;13;13;27.38;36.00
05.09.2021 23:00;1;8;8;27.62;35.00
05.09.2021 23:30;1;10;10;27.00;39.00
06.09.2021 00:00;1;1;1;25.00;25.00
06.09.2021 00:30;1;3;3;27.33;31.00
06.09.2021 01:00;1;1;1;28.00;28.00
06.09.2021 02:00;1;3;3;28.67;34.00
06.09.2021 03:30;1;2;2;24.00;26.00
06.09.2021 04:00;1;1;1;29.00;29.00
06.09.2021 04:30;1;2;2;29.00;35.00
06.09.2021 05:00;1;6;6;24.67;31.00
06.09.2021 05:30;1;16;16;23.81;30.00
06.09.2021 06:00;1;14;14;25.64;32.00
06.09.2021 06:30;1;53;53;24.19;33.00
06.09.2021 07:00;1;45;45;26.47;37.00
06.09.2021 07:30;1;70;70;24.64;37.00
06.09.2021 08:00;1;49;49;25.20;36.00
06.09.2021 08:30;1;47;47;26.79;43.00
06.09.2021 09:00;1;46;46;26.22;40.00
06.09.2021 09:30;1;62;62;25.27;43.00
06.09.2021 10:00;1;69;69;24.26;41.00
06.09.2021 10:30;1;63;63;24.90;37.00
06.09.2021 11:00;1;65;65;24. Jun;35.00
06.09.2021 11:30;1;74;74;25.49;35.00
06.09.2021 12:00;1;52;52;25.90;43.00
06.09.2021 12:30;1;68;68;24.88;35.00
06.09.2021 13:00;1;61;61;24.31;34.00
06.09.2021 13:30;1;55;55;23.84;35.00
06.09.2021 14:00;1;53;53;24.00;34.00
06.09.2021 14:30;1;61;61;24.97;54.00
06.09.2021 15:00;1;53;53;24. Apr;38.00
06.09.2021 15:30;1;52;52;24.75;42.00
06.09.2021 16:00;1;69;69;24.25;34.00
06.09.2021 16:30;1;62;62;24.98;55.00
06.09.2021 17:00;1;83;83;25. Dez;39.00
06.09.2021 17:30;1;65;65;24.94;37.00
06.09.2021 18:00;1;63;63;24.79;39.00
06.09.2021 18:30;1;58;58;26.33;50.00
06.09.2021 19:00;1;32;32;27.78;37.00
06.09.2021 19:30;1;43;43;27. Mai;61.00
06.09.2021 20:00;1;23;23;24.74;36.00
06.09.2021 20:30;1;24;24;25.88;36.00
06.09.2021 21:00;1;28;28;26.61;44.00
06.09.2021 21:30;1;22;22;28.45;49.00
06.09.2021 22:00;1;15;15;26.33;32.00
06.09.2021 22:30;1;10;10;27.70;36.00
06.09.2021 23:00;1;9;9;29.89;46.00
06.09.2021 23:30;1;8;8;26.88;38.00
07.09.2021 00:00;1;4;4;26.50;30.00
07.09.2021 00:30;1;4;4;29.25;36.00
07.09.2021 01:00;1;4;4;24.00;25.00
07.09.2021 01:30;1;3;3;30.67;38.00
07.09.2021 02:00;1;2;2;25.50;34.00
07.09.2021 02:30;1;1;1;27.00;27.00
07.09.2021 03:30;1;1;1;31.00;31.00
07.09.2021 04:30;1;5;5;26.80;32.00
07.09.2021 05:00;1;12;12;24.75;38.00
07.09.2021 05:30;1;12;12;27.17;34.00
07.09.2021 06:00;1;21;21;27.29;39.00
07.09.2021 06:30;1;38;38;25.63;35.00
07.09.2021 07:00;1;46;46;24. Sep;35.00
07.09.2021 07:30;1;58;58;24.21;35.00
07.09.2021 08:00;1;51;51;25. Jun;34.00
07.09.2021 08:30;1;53;53;24.55;35.00
07.09.2021 09:00;1;43;43;24.60;38.00
07.09.2021 09:30;1;52;52;23.44;38.00
07.09.2021 10:00;1;52;52;24.77;43.00
07.09.2021 10:30;1;51;51;24.67;39.00
07.09.2021 11:00;1;57;57;24.33;41.00
07.09.2021 11:30;1;69;69;24. Apr;37.00
07.09.2021 12:00;1;52;52;25.13;37.00
07.09.2021 12:30;1;55;55;25. Mai;43.00
07.09.2021 13:00;1;53;53;25. Apr;61.00
07.09.2021 13:30;1;54;54;23.69;35.00
07.09.2021 14:00;1;64;64;25.47;44.00
07.09.2021 14:30;1;54;54;23.78;33.00
07.09.2021 15:00;1;47;47;24.43;40.00
07.09.2021 15:30;1;58;58;25.52;50.00
07.09.2021 16:00;1;70;70;24.31;43.00
07.09.2021 16:30;1;60;60;24.20;33.00
07.09.2021 17:00;1;52;52;24.25;38.00
07.09.2021 17:30;1;53;53;24.36;34.00
07.09.2021 18:00;1;50;50;25.26;38.00
07.09.2021 18:30;1;59;59;25. Okt;45.00
07.09.2021 19:00;1;42;42;25.45;33.00
07.09.2021 19:30;1;46;46;25.59;42.00
07.09.2021 20:00;1;36;36;25.47;37.00
07.09.2021 20:30;1;34;34;24.71;46.00
07.09.2021 21:00;1;28;28;26. Nov;47.00
07.09.2021 21:30;1;12;12;26.75;39.00
07.09.2021 22:00;1;13;13;24.77;41.00
07.09.2021 22:30;1;20;20;26.60;48.00
07.09.2021 23:00;1;5;5;25.60;32.00
07.09.2021 23:30;1;11;11;25.73;38.00
08.09.2021 00:00;1;6;6;30.83;44.00
08.09.2021 01:00;1;2;2;30.50;37.00
08.09.2021 01:30;1;1;1;25.00;25.00
08.09.2021 02:00;1;1;1;30.00;30.00
08.09.2021 03:00;1;1;1;22.00;22.00
08.09.2021 03:30;1;2;2;25.50;30.00
08.09.2021 04:30;1;1;1;33.00;33.00
08.09.2021 05:00;1;7;7;25.29;44.00
08.09.2021 05:30;1;19;19;25. Nov;38.00
08.09.2021 06:00;1;24;24;27.17;39.00
08.09.2021 06:30;1;49;49;25.22;36.00
08.09.2021 07:00;1;42;42;25.90;42.00
08.09.2021 07:30;1;64;64;24.62;33.00
08.09.2021 08:00;1;40;40;25.60;37.00
08.09.2021 08:30;1;42;42;23.31;35.00
08.09.2021 09:00;1;54;54;25.31;41.00
08.09.2021 09:30;1;53;53;25.13;38.00
08.09.2021 10:00;1;54;54;24.22;36.00
08.09.2021 10:30;1;52;52;23.92;35.00
08.09.2021 11:00;1;43;43;23.47;30.00
08.09.2021 11:30;1;63;63;23.60;38.00
08.09.2021 12:00;1;55;55;25.78;40.00
08.09.2021 12:30;1;58;58;25. Sep;38.00
08.09.2021 13:00;1;42;42;25.38;45.00
08.09.2021 13:30;1;59;59;23.92;32.00
08.09.2021 14:00;1;54;54;24. Feb;33.00
08.09.2021 14:30;1;62;62;23. Feb;37.00
08.09.2021 15:00;1;48;48;24.33;36.00
08.09.2021 15:30;1;55;55;26.55;46.00
08.09.2021 16:00;1;74;74;25.15;36.00
08.09.2021 16:30;1;67;67;26.28;56.00
08.09.2021 17:00;1;66;66;25. Dez;41.00
08.09.2021 17:30;1;57;57;24. Mai;33.00
08.09.2021 18:00;1;56;56;24.59;36.00
08.09.2021 18:30;1;65;65;24.66;41.00
08.09.2021 19:00;1;39;39;24.18;41.00
08.09.2021 19:30;1;33;33;24.82;36.00
08.09.2021 20:00;1;30;30;25.40;35.00
08.09.2021 20:30;1;36;36;25.00;38.00
08.09.2021 21:00;1;11;11;26. Sep;31.00
08.09.2021 21:30;1;23;23;26.35;43.00
08.09.2021 22:00;1;13;13;26.15;35.00
08.09.2021 22:30;1;15;15;26.20;35.00
08.09.2021 23:00;1;11;11;24.64;38.00
08.09.2021 23:30;1;5;5;30.60;42.00
09.09.2021 00:00;1;4;4;25.00;28.00
09.09.2021 00:30;1;1;1;26.00;26.00
09.09.2021 01:00;1;4;4;21.50;31.00
09.09.2021 01:30;1;1;1;43.00;43.00
09.09.2021 02:00;1;2;2;34.50;35.00
09.09.2021 02:30;1;1;1;36.00;36.00
09.09.2021 03:00;1;1;1;21.00;21.00
09.09.2021 03:30;1;3;3;33.67;37.00
09.09.2021 04:00;1;2;2;28.00;32.00
09.09.2021 04:30;1;3;3;23.33;24.00
09.09.2021 05:00;1;7;7;26.71;39.00
09.09.2021 05:30;1;11;11;26.00;41.00
09.09.2021 06:00;1;20;20;25.50;35.00
09.09.2021 06:30;1;37;37;25.76;40.00
09.09.2021 07:00;1;54;54;24.80;38.00
09.09.2021 07:30;1;62;62;23.27;31.00
09.09.2021 08:00;1;45;45;24. Feb;32.00
09.09.2021 08:30;1;49;49;23.71;43.00
09.09.2021 09:00;1;53;53;23.89;36.00
09.09.2021 09:30;1;51;51;25.29;38.00
09.09.2021 10:00;1;55;55;25.71;43.00
09.09.2021 10:30;1;64;64;25. Feb;36.00
09.09.2021 11:00;1;72;72;23.93;35.00
09.09.2021 11:30;1;55;55;23.49;34.00
09.09.2021 12:00;1;50;50;24.74;40.00
09.09.2021 12:30;1;74;74;23.85;43.00
09.09.2021 13:00;1;53;53;23.70;33.00
09.09.2021 13:30;1;77;77;24. Sep;46.00
09.09.2021 14:00;1;57;57;23.72;32.00
09.09.2021 14:30;1;65;65;24.48;52.00
09.09.2021 15:00;1;50;50;24.60;37.00
09.09.2021 15:30;1;64;64;23.84;34.00
09.09.2021 16:00;1;64;64;25.39;38.00
09.09.2021 16:30;1;52;52;24.77;44.00
09.09.2021 17:00;1;54;54;24.22;47.00
09.09.2021 17:30;1;56;56;24.61;36.00
09.09.2021 18:00;1;66;66;23.95;35.00
09.09.2021 18:30;1;60;60;24.25;42.00
09.09.2021 19:00;1;46;46;26.15;43.00
09.09.2021 19:30;1;41;41;26.49;38.00
09.09.2021 20:00;1;44;44;25.14;42.00
09.09.2021 20:30;1;26;26;27.38;47.00
09.09.2021 21:00;1;21;21;27.33;43.00
09.09.2021 21:30;1;15;15;24.27;38.00
09.09.2021 22:00;1;18;18;27.39;58.00
09.09.2021 22:30;1;20;20;27. Mai;43.00
09.09.2021 23:00;1;7;7;29.29;41.00
09.09.2021 23:30;1;7;7;28.57;47.00
10.09.2021 00:00;1;6;6;28.00;39.00
10.09.2021 00:30;1;4;4;27.75;39.00
10.09.2021 01:00;1;3;3;26.00;35.00
10.09.2021 01:30;1;1;1;29.00;29.00
10.09.2021 02:30;1;2;2;24.50;27.00
10.09.2021 03:30;1;2;2;37.50;45.00
10.09.2021 04:30;1;2;2;20.00;22.00
10.09.2021 05:00;1;8;8;26.50;35.00
10.09.2021 05:30;1;16;16;24.25;34.00
10.09.2021 06:00;1;17;17;26.35;35.00
10.09.2021 06:30;1;37;37;24.76;32.00
10.09.2021 07:00;1;46;46;25.57;37.00
10.09.2021 07:30;1;60;60;23.25;33.00
10.09.2021 08:00;1;40;40;24.45;41.00
10.09.2021 08:30;1;49;49;24.90;33.00
10.09.2021 09:00;1;53;53;24.92;33.00
10.09.2021 09:30;1;54;54;25.70;47.00
10.09.2021 10:00;1;61;61;24. Mai;40.00
10.09.2021 10:30;1;65;65;24.92;38.00
10.09.2021 11:00;1;53;53;24. Nov;41.00
10.09.2021 11:30;1;49;49;24.24;31.00
10.09.2021 12:00;1;64;64;25. Jun;41.00
10.09.2021 12:30;1;54;54;25.35;43.00
10.09.2021 13:00;1;66;66;24.88;36.00
10.09.2021 13:30;1;55;55;24.15;35.00
10.09.2021 14:00;1;73;73;24.70;39.00
10.09.2021 14:30;1;77;77;24.34;36.00
10.09.2021 15:00;1;59;59;24.95;39.00
10.09.2021 15:30;1;69;69;24.65;38.00
10.09.2021 16:00;1;66;66;25.64;42.00
10.09.2021 16:30;1;63;63;25.13;37.00
10.09.2021 17:00;1;66;66;24.52;41.00
10.09.2021 17:30;1;65;65;24.98;39.00
10.09.2021 18:00;1;52;52;24.83;39.00
10.09.2021 18:30;1;55;55;25.24;41.00
10.09.2021 19:00;1;46;46;23.89;45.00
10.09.2021 19:30;1;35;35;25.89;36.00
10.09.2021 20:00;1;35;35;24.71;42.00
10.09.2021 20:30;1;30;30;26.67;40.00
10.09.2021 21:00;1;18;18;28.44;43.00
10.09.2021 21:30;1;24;24;29.38;51.00
10.09.2021 22:00;1;12;12;30.83;45.00
10.09.2021 22:30;1;13;13;25.69;39.00
10.09.2021 23:00;1;13;13;28.54;45.00
10.09.2021 23:30;1;10;10;30.80;52.00
11.09.2021 00:00;1;5;5;29.20;37.00
11.09.2021 00:30;1;5;5;28.00;41.00
11.09.2021 01:00;1;6;6;25.33;35.00
11.09.2021 01:30;1;3;3;31.00;41.00
11.09.2021 02:00;1;3;3;21.67;26.00
11.09.2021 02:30;1;4;4;30.50;50.00
11.09.2021 03:00;1;1;1;34.00;34.00
11.09.2021 03:30;1;1;1;24.00;24.00
11.09.2021 04:00;1;2;2;35.50;37.00
11.09.2021 05:00;1;3;3;23.00;26.00
11.09.2021 05:30;1;7;7;23.43;27.00
11.09.2021 06:00;1;10;10;26.40;34.00
11.09.2021 06:30;1;11;11;25.18;29.00
11.09.2021 07:00;1;7;7;25.86;31.00
11.09.2021 07:30;1;22;22;23.50;31.00
11.09.2021 08:00;1;25;25;26. Aug;39.00
11.09.2021 08:30;1;41;41;25.51;37.00
11.09.2021 09:00;1;49;49;23.86;35.00
11.09.2021 09:30;1;63;63;26.24;41.00
11.09.2021 10:00;1;69;69;25. Sep;43.00
11.09.2021 10:30;1;63;63;25.89;48.00
11.09.2021 11:00;1;75;75;25.39;38.00
11.09.2021 11:30;1;71;71;25. Mrz;36.00
11.09.2021 12:00;1;66;66;25.47;38.00
11.09.2021 12:30;1;72;72;24.69;41.00
11.09.2021 13:00;1;75;75;26.13;45.00
11.09.2021 13:30;1;64;64;24.94;45.00
11.09.2021 14:00;1;57;57;25.93;43.00
11.09.2021 14:30;1;65;65;24.80;34.00
11.09.2021 15:00;1;55;55;26.55;38.00
11.09.2021 15:30;1;47;47;24.68;48.00
11.09.2021 16:00;1;56;56;25.16;47.00
11.09.2021 16:30;1;45;45;24.78;34.00
11.09.2021 17:00;1;47;47;25.15;42.00
11.09.2021 17:30;1;50;50;26.60;37.00
11.09.2021 18:00;1;60;60;26.98;43.00
11.09.2021 18:30;1;56;56;26.52;44.00
11.09.2021 19:00;1;53;53;26.55;50.00
11.09.2021 19:30;1;28;28;26.96;46.00
11.09.2021 20:00;1;32;32;27. Jun;41.00
11.09.2021 20:30;1;24;24;27.96;45.00
11.09.2021 21:00;1;29;29;26.66;41.00
11.09.2021 21:30;1;22;22;25.86;37.00
11.09.2021 22:00;1;19;19;28.74;51.00
11.09.2021 22:30;1;11;11;29.36;48.00
11.09.2021 23:00;1;13;13;21.92;26.00
11.09.2021 23:30;1;9;9;29.89;46.00
12.09.2021 00:00;1;9;9;29.44;37.00
12.09.2021 00:30;1;8;8;34.50;57.00
12.09.2021 01:00;1;5;5;35.60;51.00
12.09.2021 01:30;1;5;5;28.40;35.00
12.09.2021 02:00;1;4;4;36.25;49.00
12.09.2021 02:30;1;5;5;35.80;43.00
12.09.2021 03:00;1;10;10;36.60;52.00
12.09.2021 03:30;1;1;1;45.00;45.00
12.09.2021 04:00;1;4;4;30.25;34.00
12.09.2021 04:30;1;1;1;23.00;23.00
12.09.2021 05:00;1;4;4;27.50;36.00
12.09.2021 05:30;1;5;5;31.00;41.00
12.09.2021 06:00;1;6;6;27.50;36.00
12.09.2021 06:30;1;5;5;26.60;30.00
12.09.2021 07:00;1;3;3;27.67;31.00
12.09.2021 07:30;1;8;8;25.88;31.00
12.09.2021 08:00;1;15;15;25.20;45.00
12.09.2021 08:30;1;25;25;27.64;36.00
12.09.2021 09:00;1;20;20;25.25;33.00
12.09.2021 09:30;1;18;18;26.67;32.00
12.09.2021 10:00;1;33;33;25.91;48.00
12.09.2021 10:30;1;22;22;25.68;32.00
12.09.2021 11:00;1;44;44;26. Jul;41.00
12.09.2021 11:30;1;36;36;24.58;33.00
12.09.2021 12:00;1;38;38;23.89;33.00
12.09.2021 12:30;1;44;44;24.77;34.00
12.09.2021 13:00;1;34;34;26.24;35.00
12.09.2021 13:30;1;37;37;26.62;45.00
12.09.2021 14:00;1;24;24;26.46;39.00
12.09.2021 14:30;1;36;36;26.19;45.00
12.09.2021 15:00;1;37;37;24.54;36.00
12.09.2021 15:30;1;34;34;24.76;37.00
12.09.2021 16:00;1;37;37;26.41;36.00
12.09.2021 16:30;1;38;38;24.45;35.00
12.09.2021 17:00;1;41;41;25.20;36.00
12.09.2021 17:30;1;44;44;24.82;34.00
12.09.2021 18:00;1;31;31;26.29;48.00
12.09.2021 18:30;1;33;33;26.58;51.00
12.09.2021 19:00;1;42;42;25.55;44.00
12.09.2021 19:30;1;36;36;24.58;33.00
12.09.2021 20:00;1;37;37;25.46;41.00
12.09.2021 20:30;1;31;31;25.16;37.00
12.09.2021 21:00;1;16;16;27.81;37.00
12.09.2021 21:30;1;16;16;26.31;41.00
12.09.2021 22:00;1;12;12;26.58;32.00
12.09.2021 22:30;1;12;12;28.50;45.00
12.09.2021 23:00;1;9;9;30.67;41.00
12.09.2021 23:30;1;7;7;30.43;39.00
13.09.2021 00:00;1;1;1;23.00;23.00
13.09.2021 00:30;1;2;2;31.50;32.00
13.09.2021 01:00;1;3;3;27.67;34.00
13.09.2021 01:30;1;2;2;23.00;30.00
13.09.2021 02:30;1;1;1;33.00;33.00
13.09.2021 03:30;1;4;4;28.00;31.00
13.09.2021 04:00;1;2;2;22.50;24.00
13.09.2021 04:30;1;2;2;27.00;28.00
13.09.2021 05:00;1;8;8;26. Dez;36.00
13.09.2021 05:30;1;17;17;25.24;32.00
13.09.2021 06:00;1;20;20;25.20;43.00
13.09.2021 06:30;1;41;41;24.90;36.00
13.09.2021 07:00;1;50;50;23.62;30.00
13.09.2021 07:30;1;67;67;23.88;41.00
13.09.2021 08:00;1;68;68;23.29;35.00
13.09.2021 08:30;1;57;57;23. Sep;41.00
13.09.2021 09:00;1;38;38;24.45;38.00
13.09.2021 09:30;1;52;52;23.13;35.00
13.09.2021 10:00;1;55;55;23.93;38.00
13.09.2021 10:30;1;67;67;23. Apr;36.00
13.09.2021 11:00;1;51;51;23. Dez;34.00
13.09.2021 11:30;1;72;72;23.54;36.00
13.09.2021 12:00;1;44;44;23. Nov;35.00
13.09.2021 12:30;1;71;71;23.77;37.00
13.09.2021 13:00;1;56;56;23.68;35.00
13.09.2021 13:30;1;62;62;24.66;38.00
13.09.2021 14:00;1;57;57;24. Jul;37.00
13.09.2021 14:30;1;53;53;23.87;32.00
13.09.2021 15:00;1;49;49;23.45;38.00
13.09.2021 15:30;1;64;64;23.89;45.00
13.09.2021 16:00;1;72;72;23.94;37.00
13.09.2021 16:30;1;66;66;24.64;40.00
13.09.2021 17:00;1;69;69;24. Mrz;37.00
13.09.2021 17:30;1;59;59;23.69;33.00
13.09.2021 18:00;1;48;48;24.67;34.00
13.09.2021 18:30;1;54;54;25.13;39.00
13.09.2021 19:00;1;56;56;24.52;38.00
13.09.2021 19:30;1;50;50;24.42;40.00
13.09.2021 20:00;1;28;28;25. Nov;39.00
13.09.2021 20:30;1;37;37;25.70;34.00
13.09.2021 21:00;1;20;20;23.60;31.00
13.09.2021 21:30;1;20;20;26. Okt;40.00
13.09.2021 22:00;1;15;15;31.20;37.00
13.09.2021 22:30;1;16;16;28.25;43.00
13.09.2021 23:00;1;8;8;28.75;38.00
13.09.2021 23:30;1;3;3;33.00;41.00
14.09.2021 00:00;1;1;1;25.00;25.00
14.09.2021 00:30;1;3;3;29.00;39.00
14.09.2021 01:00;1;1;1;38.00;38.00
14.09.2021 01:30;1;2;2;28.50;36.00
14.09.2021 02:00;1;1;1;31.00;31.00
14.09.2021 02:30;1;2;2;28.00;35.00
14.09.2021 03:00;1;1;1;21.00;21.00
14.09.2021 03:30;1;2;2;26.00;27.00
14.09.2021 04:30;1;3;3;24.33;30.00
14.09.2021 05:00;1;9;9;27.78;44.00
14.09.2021 05:30;1;17;17;25.53;40.00
14.09.2021 06:00;1;21;21;26.38;38.00
14.09.2021 06:30;1;47;47;25.21;38.00
14.09.2021 07:00;1;45;45;23.78;34.00
14.09.2021 07:30;1;51;51;20.92;38.00
14.09.2021 08:00;1;56;56;23. Apr;35.00
14.09.2021 08:30;1;56;56;21.79;37.00
14.09.2021 09:00;1;54;54;23.00;37.00
14.09.2021 09:30;1;62;62;22.34;39.00
14.09.2021 10:00;1;50;50;22.94;35.00
14.09.2021 10:30;1;51;51;22.16;33.00
14.09.2021 11:00;1;50;50;21.94;34.00
14.09.2021 11:30;1;54;54;23. Feb;37.00
14.09.2021 12:00;1;45;45;23.44;33.00
14.09.2021 12:30;1;51;51;22.82;40.00
14.09.2021 13:00;1;46;46;21.83;37.00
14.09.2021 13:30;1;64;64;24.48;43.00
14.09.2021 14:00;1;52;52;23.67;41.00
14.09.2021 14:30;1;64;64;23.55;41.00